[[[{"header":{"parameterUnit":"kt","parameterCategory":2,"dx":1,"dy":1,"la1":30.253999710083008,"la2":30.299108505249023,"lo1":-89.0895004272461,"lo2":-89.04439544677734,"nx":28,"ny":28,"refTime":"2022-10-09T21:00:00:Z","depth":0,"parameterNumber":1,"parameterNumberName":"U-component_of_WINDS"},"data":[-7.0515,-7.0723,-7.0685,-7.0904,-7.0907,-7.105,-7.1089,-7.1135,-7.1162,-7.1328,-7.1416,-7.1399,-7.141,-7.1506,-7.1599,-7.1588,-7.1632,-7.1732,-7.1703,-7.1289,-7.1229,-7.1172,-7.1121,-7.1741,-7.1742,-7.2139,-7.2142,-7.2145,-7.0212,-7.0217,-7.0322,-7.0399,-7.0488,-7.0368,-7.0419,-7.0501,-7.0633,-7.0667,-7.0752,-7.0895,-7.1002,-7.0979,-7.1076,-7.1171,-7.1121,-7.12,-7.1194,-7.1198,-7.0752,-7.0698,-7.1239,-7.1239,-7.1239,-7.1239,-7.1238,-7.1238,-6.9649,-6.9776,-6.9799,-6.9913,-6.9941,-6.9992,-7.0105,-7.0081,-7.0183,-7.028,-7.0214,-7.0362,-7.0389,-7.0487,-7.0511,-7.0624,-7.0529,-7.0605,-7.0624,-7.0645,-7.0674,-7.0108,-7.0638,-7.0636,-7.0635,-7.0633,-7.0632,0,-6.9226,-6.9186,-6.9284,-6.9372,-6.9452,-6.9517,-6.9569,-6.9638,-6.9539,-6.9628,-6.9752,-6.9818,-6.9947,-7.006,-7.0141,-7.015,-7.0036,-7.002,-7.0072,-7.0108,-7.0129,-7.0122,-6.9399,-7.0006,-7.0,-6.9996,-6.9993,-6.9991,-6.8658,-6.881,-6.8816,-6.889,-6.8909,-6.9031,-6.9095,-6.8996,-6.9069,-6.9118,-6.9235,-6.9346,-6.943,-6.9637,-6.9607,-6.9703,-6.965,-6.9885,-6.9664,-6.969,-6.9656,-6.9649,-6.9663,-6.9932,-6.994,-6.9946,-6.9951,0,-6.8342,-6.8279,-6.8501,-6.8492,-6.8495,-6.8659,-6.8651,-6.8772,-6.8735,-6.8897,-6.8929,-6.8872,-6.8997,-6.8928,-6.9056,-6.9017,-6.9285,-6.9229,-6.9275,-6.9261,-6.9466,-6.9449,-7.0142,-7.0228,-6.9581,-6.9588,-6.9593,0,-6.7833,-6.8037,-6.793,-6.8063,-6.8284,-6.8179,-6.8401,-6.8391,-6.8413,-6.854,-6.8398,-6.852,-6.8413,-6.8525,-6.8467,-6.8673,-6.8697,-6.868,-6.8663,-6.8695,-6.8698,-6.8735,-6.8706,-6.8615,-6.8612,-6.8609,-6.8606,0,-6.7348,-6.7528,-6.7742,-6.7773,-6.7785,-6.7888,-6.7898,-6.7921,-6.7986,-6.8057,-6.8098,-6.819,-6.8242,-6.8314,-6.824,-6.8092,-6.849,-6.8272,-6.8473,-6.8475,-6.8568,-6.8564,-6.9191,-6.8602,-6.8601,-6.86,-6.8598,0,-6.6928,-6.7003,-6.7323,-6.7329,-6.7381,-6.7522,-6.7605,-6.771,-6.7745,-6.7717,-6.7773,-6.7671,-6.7845,-6.7633,-6.7872,-6.77,-6.7759,-6.7757,-6.777,-6.7785,-6.7551,-6.7918,-6.852,-6.8581,-6.7794,-6.7787,-6.7781,0,-6.639,-6.6696,-6.6608,-6.6915,-6.7046,-6.6878,-6.7032,-6.7068,-6.7043,-6.7151,-6.7122,-6.7248,-6.7075,-6.7105,-6.7231,-6.7209,-6.7431,-6.7176,-6.7335,-6.7342,-6.7333,-6.7886,-6.7994,-6.8394,-6.7694,-6.7703,-6.771,0,-6.5965,-6.5977,-6.6039,-6.607,-6.61,-6.621,-6.6387,-6.6487,-6.6564,-6.6619,-6.6766,-6.6938,-6.6815,-6.6867,-6.6794,-6.693,-6.7277,-6.678,-6.6779,-6.6874,-6.7644,-6.7746,-6.7814,-6.7198,-6.7208,-6.7217,-6.7641,0,-6.5349,-6.5494,-6.5655,-6.573,-6.5803,-6.5991,-6.5918,-6.6004,-6.5925,-6.5896,-6.611,-6.6123,-6.6226,-6.6283,-6.621,-6.6542,-6.6476,-6.6344,-6.6136,-6.6498,-6.6636,-6.6693,-6.5936,-6.5929,-6.5924,-6.5919,0,0,-6.4851,-6.5057,-6.4956,-6.5124,-6.518,-6.5003,-6.5211,-6.5245,-6.5319,-6.5362,-6.5244,-6.5491,-6.5508,-6.5777,-6.5883,-6.5925,-6.5978,-6.5856,-6.6326,-6.6372,-6.6414,-6.6563,-6.6622,-6.5909,-6.5907,-6.5905,-6.5903,0,-6.4612,-6.463,-6.4836,-6.4866,-6.4907,-6.4865,-6.4914,-6.4924,-6.4915,-6.5125,-6.4977,-6.5097,-6.5299,-6.5335,-6.5381,-6.582,-6.5704,-6.5856,-6.6118,-6.6272,-6.6326,-6.6372,-6.653,-6.6588,-6.589,-6.5891,-6.5891,0,-6.4182,-6.4188,-6.428,-6.4398,-6.4424,-6.4564,-6.4326,-6.4485,-6.4588,-6.4388,-6.46,-6.4598,-6.4641,-6.4904,-6.5019,-6.4916,-6.5458,-6.5274,-6.5307,-6.5319,-6.5466,-6.553,-6.5587,-6.4838,-6.4835,-6.4832,0,0,-6.3985,-6.4118,-6.4095,-6.4341,-6.4367,-6.4308,-6.4376,-6.4305,-6.4346,-6.4364,-6.436,-6.4406,-6.452,-6.4599,-6.4704,-6.5003,-6.5005,-6.5147,-6.5197,-6.5238,-6.5272,-6.543,-6.5493,-6.4819,-6.4819,-6.4818,0,0,-6.3891,-6.3874,-6.3787,-6.4063,-6.4107,-6.4102,-6.4255,-6.4149,-6.4236,-6.4207,-6.4096,-6.4104,-6.4348,-6.4353,-6.4191,-6.4629,-6.4424,-6.4461,-6.4618,-6.4679,-6.4728,-6.4723,-6.3951,0,0,0,0,0,-6.3609,-6.3875,-6.3797,-6.3832,-6.3982,-6.4145,-6.4163,-6.4077,-6.3933,-6.4056,-6.4035,-6.3906,-6.4242,-6.4096,-6.4133,-6.4316,-6.4655,-6.4684,-6.4711,-6.4984,-6.5049,-6.5104,0,0,0,0,0,0,-6.3622,-6.3666,-6.3789,-6.3797,-6.3829,-6.4134,-6.3871,-6.3855,-6.3918,-6.389,-6.3914,-6.3906,-6.3837,-6.4071,-6.4106,-6.4282,-6.3939,-6.4666,-6.4691,-6.4713,-6.5006,-6.5059,-6.5105,0,0,0,0,0,-6.3632,-6.3667,-6.3931,-6.3792,-6.3821,-6.377,-6.3861,-6.3845,-6.3892,-6.3861,-6.3849,-6.3822,-6.3844,-6.3867,-6.4091,-6.4268,-6.3914,-6.3927,-6.4682,-6.4702,-6.4719,-6.5032,0,0,0,0,0,0,-6.364,-6.3654,-6.3934,-6.394,-6.3685,-6.3751,-6.3758,-6.3837,-6.3857,-6.3848,-6.3762,-6.374,-6.3853,-6.3869,-6.3888,-6.4268,-6.3894,-6.3907,-6.3916,-6.4697,-6.4712,-6.4726,0,0,0,0,0,0,-6.3635,-6.366,-6.3937,-6.3807,-6.3797,-6.3734,-6.3741,-6.3918,-6.3859,-6.3756,-6.3738,-6.3752,-6.3824,-6.3872,-6.3886,-6.4166,-6.3878,-6.3891,-6.39,-6.3906,-6.471,-6.4722,0,0,0,0,0,0,-6.3644,-6.3666,-6.3805,-6.3798,-6.3788,-6.3843,-6.3889,-6.4048,-6.3747,-6.3758,-6.3718,-6.3704,-6.3831,-6.3843,-6.3885,-6.4161,-6.4165,-6.3879,-6.3888,-6.3894,-6.3898,0,0,0,0,0,0,0,-6.3651,-6.3526,-6.3902,-6.379,-6.378,-6.3991,-6.3992,-6.3994,-6.3744,-6.3732,-6.3721,-6.371,-6.3804,-6.3818,-6.3833,-6.4157,0,0,-6.3877,-6.3884,0,0,0,0,0,0,0,0,-6.3514,-6.3523,-6.3902,-6.3903,-6.3904,-6.3991,-6.3992,-6.3993,-6.3742,-6.3733,-6.3723,-6.3714,-6.3808,-6.382,-6.3831,0,0,0,0,0,0,0,0,0,0,0,0,0,0,0,-6.3902,-6.3903,0,-6.3991,-6.3992,-6.3993,-6.3741,-6.3733,-6.3725,-6.3718,-6.3811,-6.3821,-6.383,0,0,0,0,0,0,0,0,0,0,0,0,0,0,0,0,0,0,0,0,0,0,0,0,0,0,0,0,0,0,0,0,0,0,0,0,0,0,0,0,0,0,0,0,0,0,0,0,0,0,0,0,0,0,0,0,0,0,0,0,0,0,0,0,0,0,0,0,0]}],[{"header":{"parameterUnit":"kt","parameterCategory":2,"dx":1,"dy":1,"la1":30.253999710083008,"la2":30.299108505249023,"lo1":-89.0895004272461,"lo2":-89.04439544677734,"nx":28,"ny":28,"refTime":"2022-10-09T21:00:00:Z","depth":0,"parameterNumber":2,"parameterNumberName":"V-component_of_WINDS"},"data":[-7.4667,-7.474,-7.4731,-7.4809,-7.4815,-7.4866,-7.4881,-7.49,-7.4913,-7.4972,-7.5004,-7.5003,-7.5011,-7.5047,-7.5081,-7.5079,-7.5092,-7.5123,-7.5115,-7.4987,-7.4969,-7.4951,-7.4932,-7.5127,-7.5127,-7.5246,-7.5247,-7.5248,-7.4568,-7.4575,-7.4615,-7.4648,-7.4681,-7.4646,-7.4669,-7.4698,-7.4745,-7.4763,-7.4795,-7.4847,-7.4886,-7.4885,-7.4921,-7.4952,-7.4937,-7.4962,-7.4957,-7.4958,-7.4823,-7.4803,-7.4974,-7.4974,-7.4974,-7.4974,-7.4974,-7.4974,-7.4385,-7.443,-7.4445,-7.4489,-7.4504,-7.4526,-7.4566,-7.4564,-7.4603,-7.4641,-7.4625,-7.4678,-7.4693,-7.4733,-7.4745,-7.4785,-7.4754,-7.4779,-7.4785,-7.479,-7.4795,-7.4617,-7.4791,-7.4791,-7.479,-7.479,-7.479,0,-7.4247,-7.4237,-7.4276,-7.4312,-7.4344,-7.4372,-7.4395,-7.4421,-7.4397,-7.4431,-7.4478,-7.4503,-7.4554,-7.4595,-7.4629,-7.4636,-7.46,-7.4598,-7.4614,-7.4619,-7.4619,-7.4615,-7.439,-7.4592,-7.459,-7.4589,-7.4588,-7.4588,-7.4057,-7.4113,-7.4127,-7.4155,-7.4166,-7.4214,-7.4239,-7.4215,-7.4243,-7.4269,-7.4309,-7.4353,-7.4386,-7.4463,-7.4459,-7.4497,-7.4479,-7.4556,-7.4484,-7.4488,-7.4474,-7.4469,-7.4472,-7.4569,-7.4572,-7.4574,-7.4575,0,-7.3949,-7.3937,-7.4022,-7.403,-7.4034,-7.4093,-7.4099,-7.4144,-7.4138,-7.4198,-7.421,-7.42,-7.4247,-7.4231,-7.4283,-7.4272,-7.4363,-7.4348,-7.4356,-7.435,-7.4414,-7.4407,-7.4634,-7.466,-7.4463,-7.4465,-7.4467,0,-7.378,-7.3856,-7.3832,-7.3882,-7.3963,-7.3937,-7.4018,-7.402,-7.4035,-7.4082,-7.4042,-7.4086,-7.406,-7.4102,-7.4088,-7.416,-7.4171,-7.4166,-7.416,-7.4167,-7.4167,-7.4178,-7.4167,-7.4152,-7.4151,-7.415,-7.4149,0,-7.361,-7.3688,-7.377,-7.3785,-7.3803,-7.3841,-7.385,-7.3867,-7.3893,-7.3925,-7.3941,-7.3981,-7.4002,-7.4032,-7.4013,-7.3964,-7.4103,-7.4032,-7.4097,-7.4097,-7.4126,-7.4123,-7.4332,-7.4148,-7.4147,-7.4147,-7.4147,0,-7.347,-7.3505,-7.3627,-7.3639,-7.3661,-7.3716,-7.3752,-7.3796,-7.3816,-7.3811,-7.3836,-7.3806,-7.3873,-7.3802,-7.3891,-7.3832,-7.3854,-7.3856,-7.3861,-7.3862,-7.3782,-7.3897,-7.4101,-7.4119,-7.3867,-7.3865,-7.3863,0,-7.3275,-7.3397,-7.3376,-7.3493,-7.3546,-7.3495,-7.3555,-7.3576,-7.3574,-7.3617,-7.3614,-7.3665,-7.361,-7.3623,-7.367,-7.3667,-7.3744,-7.3658,-7.3714,-7.3717,-7.3705,-7.3895,-7.3927,-7.4059,-7.3833,-7.3836,-7.3838,0,-7.3123,-7.3146,-7.3169,-7.3184,-7.321,-7.3256,-7.3326,-7.3371,-7.34,-7.3431,-7.3486,-7.356,-7.3519,-7.3543,-7.3524,-7.3573,-7.3692,-7.3523,-7.3523,-7.355,-7.3819,-7.3847,-7.387,-7.3667,-7.3671,-7.3674,-7.3815,0,-7.2905,-7.2966,-7.3029,-7.3069,-7.3103,-7.3178,-7.3162,-7.3199,-7.3176,-7.3173,-7.3257,-7.3272,-7.3318,-7.3342,-7.3322,-7.3441,-7.3418,-7.3375,-7.3303,-7.3429,-7.3474,-7.3494,-7.3236,-7.3234,-7.3232,-7.323,0,0,-7.2718,-7.2807,-7.2783,-7.2852,-7.2878,-7.2825,-7.2905,-7.2925,-7.2967,-7.2985,-7.2946,-7.3051,-7.3066,-7.3169,-7.3208,-7.3229,-7.3247,-7.3204,-7.337,-7.3386,-7.34,-7.345,-7.347,-7.3227,-7.3226,-7.3226,-7.3225,0,-7.2635,-7.2655,-7.2737,-7.2756,-7.2784,-7.2777,-7.2797,-7.2815,-7.2817,-7.2902,-7.2855,-7.2905,-7.2993,-7.3012,-7.3033,-7.3192,-7.3153,-7.3209,-7.3297,-7.3352,-7.3371,-7.3387,-7.3439,-7.3458,-7.3221,-7.3221,-7.3221,0,-7.2478,-7.2493,-7.2532,-7.2594,-7.2612,-7.267,-7.2591,-7.2658,-7.27,-7.2639,-7.2724,-7.273,-7.2756,-7.2859,-7.2905,-7.2869,-7.3068,-7.3006,-7.3017,-7.302,-7.3073,-7.3095,-7.3114,-7.2856,-7.2855,-7.2854,0,0,-7.2408,-7.2467,-7.2475,-7.2575,-7.2589,-7.2581,-7.2612,-7.2592,-7.2618,-7.2629,-7.2636,-7.2662,-7.2711,-7.2745,-7.2792,-7.2908,-7.2909,-7.2961,-7.2978,-7.2992,-7.3004,-7.306,-7.3082,-7.285,-7.2849,-7.2849,0,0,-7.2374,-7.2388,-7.2361,-7.2475,-7.2502,-7.2516,-7.2576,-7.2543,-7.2584,-7.2574,-7.2545,-7.255,-7.2646,-7.2655,-7.2595,-7.2765,-7.2694,-7.2708,-7.2755,-7.2777,-7.2794,-7.2788,-7.2515,0,0,0,0,0,-7.2281,-7.2386,-7.2362,-7.2379,-7.2457,-7.253,-7.2539,-7.2518,-7.2467,-7.2515,-7.2515,-7.2473,-7.2616,-7.2562,-7.2579,-7.2645,-7.279,-7.2801,-7.2811,-7.2899,-7.2921,-7.294,0,0,0,0,0,0,-7.2288,-7.2309,-7.2359,-7.2378,-7.2395,-7.2526,-7.2434,-7.2431,-7.2461,-7.2452,-7.2475,-7.2474,-7.2457,-7.2552,-7.2568,-7.2631,-7.251,-7.2794,-7.2803,-7.2811,-7.2906,-7.2925,-7.2941,0,0,0,0,0,-7.2293,-7.231,-7.2442,-7.2376,-7.2391,-7.2388,-7.243,-7.2427,-7.2449,-7.2452,-7.245,-7.2431,-7.2459,-7.2471,-7.2561,-7.2624,-7.2499,-7.2505,-7.28,-7.2807,-7.2814,-7.2915,0,0,0,0,0,0,-7.2297,-7.2307,-7.2445,-7.2449,-7.2336,-7.238,-7.2386,-7.2423,-7.2447,-7.2447,-7.2406,-7.2398,-7.2462,-7.247,-7.2479,-7.2623,-7.249,-7.2496,-7.25,-7.2806,-7.2811,-7.2816,0,0,0,0,0,0,-7.2297,-7.231,-7.2447,-7.2397,-7.2395,-7.2373,-7.2378,-7.2453,-7.2448,-7.24,-7.2394,-7.2402,-7.2448,-7.2471,-7.2478,-7.2595,-7.2483,-7.2489,-7.2493,-7.2496,-7.281,-7.2814,0,0,0,0,0,0,-7.2302,-7.2314,-7.2396,-7.2394,-7.2392,-7.2432,-7.2438,-7.252,-7.2407,-7.2399,-7.2396,-7.2391,-7.245,-7.2456,-7.2477,-7.2592,-7.2595,-7.2484,-7.2488,-7.249,-7.2492,0,0,0,0,0,0,0,-7.2306,-7.2238,-7.2423,-7.2392,-7.239,-7.2483,-7.2484,-7.2485,-7.2406,-7.2401,-7.2397,-7.2393,-7.2451,-7.2457,-7.2464,-7.2589,0,0,-7.2483,-7.2486,0,0,0,0,0,0,0,0,-7.2233,-7.2237,-7.2423,-7.2424,-7.2425,-7.2483,-7.2484,-7.2485,-7.2405,-7.2401,-7.2398,-7.2394,-7.2453,-7.2458,-7.2463,0,0,0,0,0,0,0,0,0,0,0,0,0,0,0,-7.2423,-7.2424,0,-7.2483,-7.2484,-7.2485,-7.2404,-7.2401,-7.2399,-7.2396,-7.2454,-7.2458,-7.2463,0,0,0,0,0,0,0,0,0,0,0,0,0,0,0,0,0,0,0,0,0,0,0,0,0,0,0,0,0,0,0,0,0,0,0,0,0,0,0,0,0,0,0,0,0,0,0,0,0,0,0,0,0,0,0,0,0,0,0,0,0,0,0,0,0,0,0,0,0]}]]]